User: anonymous   Login
Location: Caltech
(34.1382°N, 118.1253°W)
Time: 22:05:45
(UTC-07:00)
Language:

Iridium 95 - Orbit

View from above orbital plane
View from above orbital plane
View from above satellite
View from above satellite

Ground track
Ground track

The orbit data is extracted from the following two-line orbital elements,

1 27375U 02005D   15211.48691490  .00000025  00000-0  17658-5 0  9991
2 27375 086.3966 214.9609 0002382 091.9271 268.2197 14.34214848712340
Epoch (UTC): 30 July 2015 11:41:09
Eccentricity: 0.0002382
inclination: 86.3966°
perigee height: 776 km
apogee height: 779 km
right ascension of ascending node: 214.9609°
argument of perigee: 91.9271°
revolutions per day: 14.34214848
mean anomaly at epoch: 268.2197°
orbit number at epoch: 71234

The dashed part of the orbit path shows where the satellite is in the earth's shadow,  

DLR